sat.trackr.live / text

‹ back to catalog

STARLINK-3990

NORAD 52626 · 2022-052AE

PAYLOAD ACTIVE UNKNOWN

§ Identity

Operator
Country
US
Launch date
2022-05-14
Launch site
AFETR
Launch vehicle
Mass (kg)
RCS (m²)

Purposes: comms

External: N2YO · Heavens-Above · Gunter

§ Orbital elements

Epoch: 2026-09-20T02:36:31.574592Z

Period
93.85 min
Inclination
53.1602°
Eccentricity
0.0000919
Mean motion
15.34388365 rev/d
Perigee alt
462.1 km
Apogee alt
463.4 km
Semi-major
6,840.9 km
B*
5.3563e-5
RAAN
103.2936°
Arg perigee
85.7905°
Mean anomaly
274.3203°
Rev number
24,051

§ Raw data

STARLINK-39901 52626U 22052AE  26263.10869878  .00001433  00000+0  53563-4 0  99942 52626  53.1602 103.2936 0000919  85.7905 274.3203 15.34388365240516

JSON: /api/v1/satellites/52626 · /tle

For live sub-satellite position, see the globe view (requires WebGL).

§ Visibility from observer

Set your observer location to see the next 7 days of passes ≥ 10°. The values pass through the URL so the page stays shareable.

No JS? Fill the form by hand. The geolocation button needs JavaScript.